Location: St. Louis
(38.6270°N, 90.1994°W)
Time: 14:40:24
(UTC-05:00)

Hubble Space Telescope - Pass Details

Date: 06 March 2014
Orbit: 539 x 543 km, 28.5° (Epoch: 25 June)

Event Time Altitude Azimuth Distance (km) Brightness Sun altitude
Rises 18:09:25 0° 239° (WSW) 2,690 5.7 -2.9°
Reaches altitude 10° 18:12:09 10° 222° (SW) 1,799 4.2 -3.4°
Maximum altitude 18:15:10 19° 176° (S) 1,306 2.8 -4.0°
Drops below altitude 10° 18:18:11 10° 129° (SE) 1,799 3.0 -4.6°
Enters shadow 18:20:08 - 115° (ESE) 2,417 3.5 -4.9°
